Idaho Falls, ID

11:21 PM MST on February 21, 2017 (GMT -0700)
Fanning

Weather History for KIDA - August, 2014

Change the Weather History Date:

Tuesday, August 12, 2014

  Actual Average Record
Temperature  
Mean Temperature 71 °F 68 °F  
Max Temperature 88 °F 87 °F 97 °F (1958)
Min Temperature 54 °F 49 °F 37 °F (2000)
Degree Days  
Heating Degree Days 0 1  
Month to date heating degree days 0 4  
Since 1 June heating degree days 130 184  
Since 1 July heating degree days 2 31  
Cooling Degree Days 6 4  
Month to date cooling degree days 48 48  
Year to date cooling degree days 251 203  
Since 1 June cooling degree days 250 201  
Growing Degree Days 21 (Base 50)    
Moisture  
Dew Point 51 °F    
Average Humidity 55    
Maximum Humidity 86    
Minimum Humidity 24    
Precipitation  
Precipitation 0.02 in 0.02 in 0.69 in (1954)
Month to date precipitation 0.89 0.18  
Year to date precipitation 4.84 6.62  
Sea Level Pressure  
Sea Level Pressure 30.02 in    
Wind  
Wind Speed 8 mph (SSW)    
Max Wind Speed 23 mph    
Max Gust Speed 32 mph    
Visibility 10 miles    
Events Rain , Thunderstorm    
T = Trace of Precipitation, MM = Missing Value Source: NWS Daily Summary

Daily Weather History Graph

Daily Weather History Graph

Search for Another Location

Airport or City:

Trip Planner

Search our weather history database for the weather conditions in past years. The results will help you decide how hot, cold, wet, or windy it might be!

Date:

Astronomy

Aug. 12, 2014 Rise Set
Actual Time 6:29 AM MDT 8:35 PM MDT
Civil Twilight 5:58 AM MDT 9:07 PM MDT
Nautical Twilight 5:20 AM MDT 9:45 PM MDT
Astronomical Twilight 4:37 AM MDT 10:27 PM MDT
Moon 9:38 PM MDT (8/12) 8:57 AM MDT (8/12)
Length of Visible Light 15h 08m
Length of Day
14h 06m
Waning Gibbous, 94% of the Moon is Illuminated
Aug 12
Waning Gibbous
Aug 17
Last Quarter
Aug 25
New
Sep 2
First Quarter
Sep 8
Full

Hourly Weather History & Observations

Time (MDT) Temp. Dew Point Humidity Pressure Visibility Wind Dir Wind Speed Gust Speed Precip Events Conditions
12:53 AM 60.1 °F 53.1 °F 78% 30.03 in 10.0 mi NNW 3.5 mph - N/A   Clear
1:53 AM 55.0 °F 51.1 °F 86% 30.04 in 10.0 mi NNW 4.6 mph - N/A   Clear
3:53 AM 55.0 °F 51.1 °F 86% 30.03 in 10.0 mi NNW 4.6 mph - N/A   Clear
4:53 AM 55.9 °F 51.1 °F 84% 30.04 in 10.0 mi SW 4.6 mph - N/A   Clear
5:53 AM 59.0 °F 50.0 °F 72% 30.05 in 10.0 mi SSW 9.2 mph - N/A   Clear
6:53 AM 60.1 °F 52.0 °F 75% 30.06 in 10.0 mi SSW 4.6 mph - N/A   Clear
7:53 AM 68.0 °F 50.0 °F 52% 30.05 in 10.0 mi South 6.9 mph - N/A   Partly Cloudy
8:53 AM 72.0 °F 51.1 °F 48% 30.07 in 10.0 mi South 4.6 mph - N/A   Scattered Clouds
9:53 AM 79.0 °F 48.0 °F 34% 30.05 in 10.0 mi SSW 13.8 mph - N/A   Scattered Clouds
12:53 PM 82.0 °F 48.9 °F 31% 30.07 in - North - - N/A   Mostly Cloudy
1:53 PM 81.0 °F 50.0 °F 34% 30.08 in 10.0 mi WSW 6.9 mph - N/A   Mostly Cloudy
2:53 PM 86.0 °F 46.9 °F 26% 30.04 in 10.0 mi North - - 0.00 in   Mostly Cloudy
3:53 PM 86.0 °F 46.0 °F 25% 30.00 in 10.0 mi South 10.4 mph 19.6 mph N/A   Scattered Clouds
4:53 PM 87.1 °F 46.0 °F 24% 29.97 in 10.0 mi South 11.5 mph - N/A   Scattered Clouds
5:53 PM 87.1 °F 46.9 °F 25% 29.94 in 10.0 mi SSW 6.9 mph - N/A   Scattered Clouds
6:53 PM 82.9 °F 48.9 °F 31% 29.94 in 10.0 mi SW 8.1 mph - N/A   Scattered Clouds
7:53 PM 82.0 °F 50.0 °F 33% 29.94 in 10.0 mi South 4.6 mph - N/A   Clear
8:53 PM 81.0 °F 50.0 °F 34% 29.94 in 10.0 mi South 6.9 mph - N/A   Scattered Clouds
9:35 PM 71.1 °F 57.0 °F 61% 30.13 in 10.0 mi West 17.3 mph 32.2 mph 0.02 in Rain , Thunderstorm Light Thunderstorms and Rain
9:53 PM 69.1 °F 55.9 °F 63% 30.01 in 10.0 mi WSW 9.2 mph - 0.02 in Thunderstorm Thunderstorm
10:53 PM 70.0 °F 55.0 °F 59% 30.02 in 10.0 mi SSE 9.2 mph - N/A   Mostly Cloudy
11:53 PM 70.0 °F 53.1 °F 55% 30.04 in 10.0 mi SSE 9.2 mph - N/A   Clear